Temperature
21 19 16 15 15 15 15 15 15 14 14 14 14 14 13 13 13 13 13 13 13 13 13 13 13 13 13 13 13 13 13 12 12 12 13 13 14 13 13 12 12 13 13
21 20 17 16 15 15 15 15 15 14 14 14 13 13 13 12 12 12 12 12 12 12 12 12 12 12 13 12 12 12 12 12 12 12 12 13 13 12 12 12 12 12 12
22 20 18 16 16 15 15 15 15 14 14 13 13 12 12 12 12 12 12 12 12 12 13 13 12 12 12 12 12 12 12 12 12 12 12 12 12 12 12 12 11 11 11
22 21 19 17 16 16 16 15 15 14 14 13 12 12 12 12 12 12 12 12 12 13 13 14 13 13 13 13 13 13 13 13 13 13 13 13 12 12 12 11 11 11 11
22 21 20 18 17 16 16 16 15 15 14 13 12 12 11 12 12 12 12 12 12 13 14 14 14 14 14 14 14 14 14 14 13 13 13 13 13 13 12 12 11 11 11
21 21 20 19 17 16 16 16 15 15 15 14 13 12 12 12 12 12 12 12 13 13 14 14 14 14 14 14 14 14 14 14 13 13 13 13 13 13 13 12 12 11 11
20 20 20 19 18 17 16 16 15 15 15 15 14 13 12 12 13 13 13 12 13 13 14 14 14 14 14 14 14 14 13 13 13 13 13 13 13 13 13 13 13 12 11
20 20 19 19 18 17 16 16 15 15 15 15 14 13 12 12 13 13 13 13 13 13 13 13 13 13 13 13 13 13 13 12 12 12 12 12 12 12 12 13 13 12 12
19 19 19 19 18 17 16 16 15 15 15 15 15 13 13 13 13 13 13 13 13 13 13 13 13 13 13 12 12 12 12 12 12 12 12 12 12 12 12 12 12 12 12
18 18 18 18 18 18 17 16 15 15 14 14 14 14 13 13 13 13 13 13 13 13 12 12 12 12 12 12 12 12 12 12 12 12 12 12 12 12 12 12 12 12 13
18 18 18 18 18 18 17 16 15 14 14 14 14 14 14 14 13 13 13 13 13 12 12 12 12 12 12 12 12 12 12 12 12 12 12 12 12 12 12 12 12 12 12
20 19 18 18 18 17 17 16 15 14 14 14 14 14 14 13 13 13 13 13 12 12 12 12 12 12 12 12 12 12 12 12 12 12 12 12 12 12 11 12 12 12 12
20 19 19 18 18 17 17 16 15 15 14 14 14 14 13 13 13 13 12 12 12 12 12 12 12 11 11 12 12 12 12 12 12 12 11 11 11 11 10 11 11 11 11
20 20 19 19 18 17 17 16 15 15 14 14 13 13 13 13 12 12 12 12 12 12 11 11 11 11 11 12 12 12 12 12 12 12 11 11 10 10 10 10 10 10 11
20 20 19 19 18 17 17 16 15 15 14 13 13 13 12 12 12 12 12 12 12 11 11 11 11 11 11 12 12 12 12 11 11 11 10 10 10 10 10 10 10 10 10
20 20 20 20 19 18 17 16 15 14 14 13 13 12 12 12 12 12 12 12 11 11 11 11 11 11 12 11 11 11 11 10 10 9 9 9 9 9 9 9 10 10 10
20 20 21 20 19 18 17 16 15 14 14 13 13 13 13 12 12 12 12 11 11 11 11 11 11 11 11 11 10 10 10 9 9 9 8 8 8 9 9 9 9 10 10
20 20 21 20 20 18 17 15 14 14 14 13 13 13 13 12 12 12 12 11 11 11 11 11 11 11 11 10 10 9 9 9 9 8 8 8 8 9 9 9 9 9 9
20 20 20 20 20 18 16 15 14 14 14 14 13 13 13 12 12 12 11 11 11 11 11 11 10 10 9 9 9 9 9 9 8 8 8 8 8 9 9 9 9 9 9
20 20 20 20 19 18 16 15 15 14 14 14 13 13 12 12 12 11 11 11 11 10 10 10 9 9 8 8 8 8 9 9 8 8 8 8 8 8 8 8 8 8 8
19 19 19 19 18 17 16 15 15 14 14 13 13 12 12 12 12 11 11 11 10 10 10 9 8 8 7 7 7 8 8 8 8 8 7 7 7 8 7 7 7 7 7
18 18 18 18 17 17 16 15 15 14 13 13 13 12 12 12 11 11 11 10 10 10 9 8 8 7 6 6 5 5 6 7 7 7 7 7 7 6 6 6 6 6 6
17 17 17 17 16 16 15 15 14 13 13 13 12 12 11 11 11 11 10 10 10 9 9 8 7 6 5 5 4 4 3 3 3 4 5 5 4 4 5 5 5 5 5
17 17 16 16 15 15 15 14 14 13 13 13 13 12 11 11 11 10 10 9 9 8 8 7 6 5 5 4 3 3 2 1 1 1 2 3 3 3 4 4 4 4 4
17 16 15 15 14 14 14 14 14 13 13 13 12 11 11 11 10 10 9 9 8 8 7 6 5 5 4 3 3 2 2 1 0 -2 -2 0 2 3 3 2 2 2 2
16 15 15 14 14 13 13 13 13 13 13 12 12 11 11 10 10 9 9 8 8 7 6 5 5 4 3 3 2 2 1 -0 -1 -2 -3 -3 -3 -0 1 1 1 1 0
Wind_Speed
6 9 17 18 17 17 15 13 11 9 8 7 8 10 12 11 10 9 7 6 4 4 6 7 9 8 7 8 9 7 5 5 5 7 8 7 7 7 6 5 3 2 5
8 12 17 18 18 17 15 13 11 9 8 7 9 11 11 10 8 7 5 4 3 4 4 5 6 8 8 8 6 4 3 4 5 6 7 7 8 7 7 6 4 3 5
9 14 16 18 18 17 15 13 11 9 8 8 10 11 9 8 6 5 4 3 3 4 4 4 4 6 6 6 5 3 2 3 4 5 6 6 8 9 9 6 6 5 6
11 14 15 18 18 17 16 14 12 10 9 9 9 8 8 7 6 5 5 4 3 4 4 4 4 4 4 4 3 3 3 4 5 4 4 5 7 9 10 6 7 7 7
9 13 15 18 18 18 16 14 12 11 9 9 8 7 6 7 7 6 5 4 3 3 3 4 3 3 3 3 3 3 4 4 4 3 4 5 6 9 10 9 7 8 8
9 11 15 17 17 17 16 15 13 11 10 9 8 7 6 6 7 7 7 5 4 3 2 2 1 1 1 3 4 5 5 5 4 4 6 7 7 9 10 10 9 9 10
8 9 13 17 17 17 16 15 13 11 10 10 9 8 6 5 5 7 8 7 6 4 2 1 2 3 4 5 7 7 8 7 6 6 8 9 10 12 11 11 11 12 12
9 8 12 17 16 17 16 15 13 12 10 10 9 8 6 4 4 3 8 7 6 4 4 4 5 6 7 7 8 9 9 9 9 7 8 11 12 13 12 11 12 13 14
7 7 8 12 14 16 16 15 14 12 11 9 9 8 6 2 2 1 5 6 5 5 5 6 7 8 8 8 9 9 9 10 8 8 9 10 11 13 14 13 13 14 16
6 7 6 9 11 12 14 15 14 13 11 10 8 7 5 2 2 1 2 4 4 5 6 7 8 9 9 9 10 10 10 8 7 7 8 10 12 12 13 14 14 15 16
6 6 6 6 8 10 12 13 13 12 11 9 7 7 6 2 2 3 3 4 5 6 7 8 9 9 10 11 12 12 11 9 7 7 7 9 10 10 12 13 12 12 12
10 9 7 8 7 8 10 10 10 10 9 8 6 6 5 2 2 4 5 6 6 5 5 7 9 12 12 12 13 13 11 11 9 8 9 10 9 9 11 13 14 13 12
9 10 11 11 9 7 5 7 7 8 7 7 7 6 4 2 1 2 2 3 4 5 7 9 11 11 12 11 10 10 11 10 9 9 10 12 12 13 14 16 18 18 18
8 10 11 12 11 9 7 5 6 5 5 5 7 7 5 3 2 3 4 6 7 7 8 9 8 10 10 10 9 8 9 9 9 9 12 16 17 17 16 17 17 17 17
10 11 12 12 13 11 8 5 5 5 5 6 6 6 6 4 4 5 5 8 9 9 8 6 6 6 6 7 9 8 8 9 10 11 12 17 19 19 19 19 18 18 17
12 13 14 15 15 12 10 7 6 5 6 6 6 7 9 9 7 6 5 6 7 8 8 7 6 5 4 4 5 6 7 7 9 11 12 14 18 20 20 19 19 17 16
12 11 13 15 14 14 12 10 5 6 7 6 7 10 12 12 11 8 6 5 6 8 9 7 6 6 5 5 5 5 5 5 7 8 9 11 13 17 19 19 19 17 16
10 9 11 13 14 14 11 9 6 7 8 7 10 12 14 13 13 10 6 6 7 8 6 5 5 5 6 6 5 4 3 3 4 6 6 8 10 12 15 17 19 17 16
9 8 10 11 14 13 11 9 9 7 7 8 11 12 13 13 14 12 7 6 8 7 4 5 6 5 5 7 6 4 3 2 1 3 3 4 6 10 12 13 17 16 15
5 6 9 10 12 14 12 11 9 9 8 7 9 11 13 13 14 13 8 8 8 6 6 5 6 6 4 5 6 6 4 2 2 1 1 1 4 9 12 11 14 14 15
4 7 9 13 14 14 13 10 10 8 8 8 8 11 13 14 14 12 7 6 6 7 6 6 4 6 6 5 5 6 4 3 2 3 1 2 2 7 12 12 14 13 12
6 8 10 13 13 12 11 8 5 7 7 7 7 9 11 13 13 12 7 7 6 6 7 7 5 3 4 5 4 4 5 6 5 3 4 3 4 6 7 14 15 13 15
8 9 10 12 12 12 13 12 12 8 6 5 7 6 7 12 14 13 10 7 6 7 6 6 6 5 4 4 4 4 3 4 5 5 5 4 5 5 6 9 12 15 18
9 8 10 11 13 14 15 17 18 12 9 6 6 6 7 11 12 12 11 9 6 6 6 5 5 3 3 3 3 2 1 3 4 6 5 4 5 7 7 9 10 16 18
9 10 11 12 12 13 12 17 16 12 9 10 9 10 8 7 9 11 11 9 6 5 6 5 4 4 2 1 1 2 2 2 4 4 7 6 6 5 6 9 8 11 15
9 10 12 13 11 10 11 13 16 18 17 15 11 9 7 6 6 7 9 8 6 5 5 4 4 3 2 0 1 2 2 2 3 4 6 11 12 7 9 9 8 6 11
Wind_Direction
208 188 181 164 158 153 149 146 141 136 135 139 151 154 147 140 132 124 115 102 82 62 55 53 54 77 106 115 108 99 86 61 30 18 14 11 1 341 314 299 303 303 302
166 175 179 164 160 155 151 149 145 144 143 144 148 144 140 137 133 130 125 111 81 58 56 53 52 61 72 80 86 86 68 31 7 5 15 18 2 343 311 281 275 264 281
149 167 175 165 161 158 155 153 152 152 149 149 149 143 139 138 137 140 132 113 79 58 57 64 61 62 60 56 53 42 20 356 343 348 17 11 353 345 333 271 250 264 280
153 161 166 167 164 161 158 157 157 157 155 156 154 150 147 149 155 154 144 123 87 67 68 74 71 66 59 44 19 349 329 324 337 339 359 352 343 332 334 302 245 249 272
150 156 163 167 167 164 162 162 163 162 161 162 159 160 164 172 179 174 162 143 111 88 84 87 81 68 48 22 349 328 322 325 340 326 316 321 322 317 313 307 281 268 274
148 153 163 167 170 169 167 167 168 168 168 169 167 168 179 198 206 201 187 170 157 148 128 105 86 36 338 320 313 309 309 318 324 298 297 301 301 303 297 289 289 282 269
153 157 166 170 175 174 172 172 173 174 175 177 180 183 195 217 238 226 199 184 184 193 213 265 313 323 319 314 312 311 315 324 314 291 287 288 287 293 292 281 275 277 271
161 163 172 178 180 178 177 176 177 178 180 184 190 195 203 234 291 241 189 188 201 223 254 284 309 318 317 316 316 317 317 314 307 297 287 283 286 294 293 285 276 271 270
163 165 174 181 182 180 179 179 182 183 183 185 190 196 198 224 332 114 172 196 218 248 276 298 315 321 322 322 322 323 319 313 306 295 293 291 296 300 296 289 280 271 268
171 178 175 179 178 176 178 182 184 185 185 186 187 184 179 201 342 42 198 223 244 273 296 312 324 329 336 342 350 353 350 343 334 321 313 314 320 317 312 307 297 285 278
190 192 183 179 177 174 176 184 184 186 188 187 184 177 175 199 294 316 292 277 283 301 319 335 353 13 24 27 26 24 23 17 8 357 345 341 341 338 339 345 341 327 312
200 197 190 189 183 175 182 181 180 182 187 182 174 171 173 188 284 305 304 307 317 336 2 26 43 46 47 42 38 37 30 26 25 16 10 10 13 14 20 22 20 14 8
202 199 197 197 191 181 178 171 172 175 179 180 176 174 165 148 4 356 31 36 45 59 65 64 59 52 49 45 41 37 31 28 26 24 22 34 40 44 44 39 36 35 35
196 202 200 198 196 191 181 173 170 170 175 179 180 172 151 121 93 85 81 76 72 74 73 66 63 54 49 46 43 37 29 27 29 34 37 45 44 43 41 37 33 32 30
207 208 200 196 198 192 182 174 170 174 178 181 170 168 155 134 117 97 85 78 71 71 72 71 65 55 45 39 37 34 26 27 34 39 40 47 47 41 38 33 28 26 24
222 218 202 196 193 186 184 180 178 171 164 158 163 166 155 137 122 108 93 81 75 75 77 75 65 52 41 35 32 31 31 35 42 45 46 49 49 41 35 29 22 18 16
234 224 202 196 185 182 182 180 166 156 151 149 148 143 135 127 121 112 99 87 79 78 75 68 57 46 35 24 23 24 32 41 51 52 54 59 58 43 33 27 19 12 9
235 218 199 190 181 179 172 160 146 145 140 136 129 123 121 121 119 108 98 88 82 76 69 62 41 37 24 10 355 2 21 26 52 57 60 69 70 52 34 25 16 5 0
223 202 182 173 171 164 147 134 126 124 120 122 118 115 114 114 112 106 99 93 87 71 52 56 46 39 22 358 337 341 5 344 36 55 59 69 66 51 36 20 8 357 351
199 174 158 149 149 140 129 120 113 106 104 104 107 111 114 112 110 106 98 90 84 71 53 49 50 38 27 353 332 328 327 320 286 2 32 37 43 38 28 10 356 342 340
163 148 146 146 148 145 141 135 129 121 114 103 101 107 112 113 110 105 100 86 78 76 64 49 47 33 17 2 357 336 334 332 299 274 304 293 356 20 16 357 341 326 319
176 155 149 152 154 152 144 130 119 120 108 100 99 100 108 110 106 102 99 95 88 85 66 51 48 43 16 24 28 359 346 337 341 333 327 308 352 8 359 340 325 315 310
186 169 157 153 147 139 131 121 117 107 105 107 107 99 95 101 100 102 101 98 87 85 78 64 56 61 20 5 38 51 10 312 311 311 314 321 340 346 327 316 311 311 305
186 162 151 149 146 146 142 142 144 146 144 141 132 118 99 95 98 99 98 93 85 81 77 67 66 63 57 14 354 20 250 247 288 308 300 302 311 311 299 309 305 297 293
161 154 149 146 148 152 151 151 147 139 126 126 120 113 100 87 90 93 92 87 81 79 77 66 59 52 63 71 339 326 318 295 249 266 292 302 303 279 286 289 286 288 287
151 149 149 148 150 151 149 150 146 140 138 136 131 122 109 98 85 84 87 85 82 77 70 60 53 44 39 11 270 251 249 273 283 277 287 306 307 297 289 281 279 277 283
Height
1496 1496 1498 1501 1503 1505 1506 1507 1508 1509 1509 1508 1508 1509 1511 1512 1512 1512 1513 1513 1513 1513 1513 1514 1514 1515 1515 1516 1517 1518 1518 1519 1519 1519 1519 1518 1518 1518 1518 1519 1519 1519 1519
1495 1496 1498 1500 1502 1504 1506 1507 1508 1508 1508 1508 1508 1510 1511 1512 1512 1513 1513 1513 1512 1512 1512 1513 1514 1515 1515 1516 1516 1517 1517 1517 1518 1518 1517 1516 1516 1517 1517 1517 1518 1518 1518
1494 1496 1497 1500 1502 1504 1505 1507 1507 1508 1507 1507 1509 1510 1511 1512 1513 1513 1513 1512 1512 1512 1511 1512 1513 1514 1515 1515 1516 1516 1516 1516 1516 1516 1515 1515 1515 1516 1517 1516 1517 1517 1518
1494 1495 1497 1499 1502 1503 1505 1506 1507 1507 1507 1508 1509 1510 1512 1513 1513 1513 1513 1513 1512 1512 1512 1512 1513 1514 1514 1515 1515 1515 1514 1514 1514 1515 1514 1514 1514 1515 1515 1515 1516 1517 1517
1494 1495 1497 1499 1502 1503 1505 1506 1507 1507 1507 1508 1509 1510 1512 1513 1514 1514 1514 1514 1513 1513 1513 1513 1513 1514 1514 1515 1515 1515 1514 1514 1514 1514 1514 1513 1513 1513 1514 1514 1514 1515 1515
1494 1495 1497 1499 1502 1503 1505 1506 1507 1507 1508 1508 1509 1510 1512 1513 1514 1515 1515 1515 1515 1514 1514 1514 1515 1515 1515 1515 1515 1515 1515 1515 1515 1514 1514 1513 1512 1512 1512 1512 1512 1512 1513
1494 1496 1497 1499 1501 1503 1504 1506 1507 1507 1508 1508 1509 1510 1512 1514 1515 1516 1516 1516 1516 1516 1516 1516 1516 1516 1516 1515 1515 1515 1515 1514 1514 1513 1513 1512 1512 1511 1510 1510 1510 1510 1510
1495 1496 1497 1499 1501 1503 1504 1506 1507 1508 1508 1509 1509 1511 1512 1514 1515 1516 1517 1517 1517 1516 1516 1516 1516 1516 1515 1515 1515 1514 1514 1513 1513 1512 1511 1511 1510 1509 1509 1508 1508 1508 1508
1495 1496 1498 1499 1501 1502 1504 1505 1507 1508 1508 1509 1510 1511 1513 1514 1515 1516 1517 1517 1517 1517 1517 1516 1516 1516 1515 1515 1514 1514 1513 1513 1512 1511 1510 1509 1508 1507 1507 1507 1507 1506 1506
1494 1496 1497 1499 1500 1502 1503 1505 1506 1507 1508 1509 1510 1511 1512 1514 1515 1516 1517 1517 1517 1517 1517 1517 1516 1516 1515 1514 1514 1513 1512 1512 1510 1509 1508 1508 1507 1506 1506 1505 1504 1504 1503
1493 1494 1496 1498 1499 1501 1502 1504 1506 1507 1508 1509 1510 1511 1512 1513 1515 1516 1517 1517 1517 1517 1517 1517 1516 1515 1515 1514 1513 1512 1511 1510 1509 1507 1507 1506 1505 1504 1503 1502 1501 1500 1499
1491 1493 1495 1497 1498 1500 1501 1503 1505 1506 1507 1508 1509 1510 1512 1513 1514 1515 1516 1516 1516 1517 1517 1516 1516 1515 1514 1512 1511 1510 1509 1508 1507 1505 1504 1504 1503 1502 1500 1499 1498 1497 1496
1490 1492 1493 1495 1497 1498 1500 1502 1504 1505 1506 1507 1508 1510 1512 1513 1514 1515 1516 1516 1516 1516 1516 1516 1515 1514 1512 1511 1509 1508 1507 1506 1504 1503 1502 1501 1500 1499 1497 1496 1495 1494 1493
1488 1490 1492 1493 1495 1497 1499 1501 1502 1504 1505 1506 1508 1510 1511 1513 1514 1515 1515 1516 1516 1516 1515 1514 1513 1512 1510 1509 1507 1506 1505 1503 1502 1500 1499 1498 1497 1496 1494 1493 1492 1491 1489
1485 1487 1488 1490 1492 1494 1497 1499 1501 1503 1504 1506 1507 1509 1511 1512 1513 1514 1515 1515 1515 1514 1514 1513 1512 1510 1509 1507 1505 1503 1502 1500 1498 1496 1495 1494 1494 1493 1491 1490 1489 1488 1487
1482 1483 1484 1486 1488 1491 1494 1496 1499 1501 1503 1505 1507 1508 1510 1511 1513 1513 1514 1513 1513 1513 1512 1511 1510 1508 1506 1505 1502 1500 1498 1496 1494 1493 1492 1491 1491 1490 1489 1487 1486 1485 1484
1478 1479 1479 1481 1483 1487 1490 1494 1496 1499 1501 1503 1505 1507 1509 1511 1511 1512 1512 1512 1512 1511 1510 1508 1507 1505 1504 1502 1500 1497 1495 1493 1492 1490 1490 1489 1489 1488 1486 1485 1483 1482 1480
1472 1473 1474 1475 1477 1481 1486 1490 1493 1496 1498 1501 1504 1506 1507 1509 1510 1510 1511 1510 1510 1509 1508 1506 1505 1502 1500 1498 1497 1495 1493 1491 1489 1488 1487 1487 1486 1485 1483 1482 1480 1478 1476
1466 1467 1469 1470 1472 1476 1481 1485 1489 1493 1496 1498 1501 1503 1505 1506 1508 1509 1509 1509 1508 1508 1506 1504 1501 1499 1497 1495 1494 1492 1490 1488 1487 1486 1485 1484 1484 1482 1481 1478 1476 1474 1471
1459 1461 1463 1465 1467 1471 1476 1480 1485 1489 1492 1495 1498 1501 1503 1504 1506 1507 1508 1508 1507 1506 1503 1501 1499 1496 1494 1492 1490 1489 1486 1485 1484 1484 1483 1482 1481 1479 1477 1474 1472 1469 1466
1453 1456 1458 1461 1463 1466 1470 1474 1479 1484 1489 1492 1496 1498 1501 1502 1504 1505 1506 1506 1505 1503 1501 1499 1497 1494 1492 1489 1487 1485 1483 1482 1482 1481 1480 1479 1477 1475 1472 1469 1466 1463 1460
1449 1451 1454 1456 1459 1462 1466 1471 1476 1481 1486 1490 1493 1496 1499 1501 1503 1503 1504 1503 1502 1500 1498 1497 1495 1493 1490 1488 1485 1482 1481 1480 1478 1479 1477 1475 1472 1469 1467 1464 1461 1458 1454
1446 1448 1450 1453 1455 1459 1463 1468 1473 1479 1483 1487 1491 1494 1497 1499 1501 1501 1501 1500 1499 1498 1496 1495 1493 1491 1490 1488 1486 1485 1482 1478 1475 1469 1469 1467 1464 1462 1459 1456 1453 1451 1447
1441 1444 1447 1450 1452 1456 1460 1465 1470 1475 1480 1485 1488 1492 1495 1497 1498 1499 1498 1498 1497 1496 1494 1493 1491 1490 1488 1487 1485 1484 1483 1480 1475 1466 1461 1460 1457 1454 1451 1448 1445 1442 1440
1436 1440 1443 1446 1450 1454 1458 1464 1469 1474 1478 1482 1486 1489 1492 1495 1496 1496 1496 1495 1494 1494 1493 1491 1490 1488 1486 1485 1483 1481 1479 1476 1473 1467 1456 1450 1447 1445 1443 1440 1437 1434 1431
1431 1436 1439 1442 1446 1451 1457 1462 1466 1471 1475 1479 1483 1487 1490 1493 1494 1494 1494 1493 1492 1491 1490 1489 1488 1486 1484 1482 1480 1477 1475 1472 1469 1464 1455 1445 1438 1434 1433 1431 1429 1426 1423